Overview Statistics Trail Chart Weather Telemetry Raw packets
 

This is the latest recevied weather packets stored in our database for station/object SA7AHC. If no packets are shown the sender has not sent any weather packets the latest 10 day(s).

<< 36 37 38 39 40 41 42 >>
Time Temp. Humidity Pressure Rain* Wind** Luminosity Snow
1788080521 16.67° C 95% 1007.1 hPa 0.25 mm - 239 W/m² -
1788079922 16.11° C 95% 1007.1 hPa 0.25 mm - 141 W/m² -
1788079322 16.11° C 96% 1007.1 hPa 0.25 mm - 111 W/m² -
1788078721 16.11° C 96% 1006.9 hPa 0.25 mm - 81 W/m² -
1788078121 16.11° C 97% 1007 hPa 0.25 mm - 47 W/m² -
1788077521 15.56° C 97% 1007 hPa 0.25 mm - 116 W/m² -
1788076919 15.56° C 98% 1007 hPa 0 mm - 121 W/m² -
1788076312 15.56° C 97% 1007.1 hPa 0 mm - 88 W/m² -
1788075711 15.56° C 98% 1007.1 hPa 0 mm - 56 W/m² -
1788075111 15.56° C 98% 1007.2 hPa 0 mm - 127 W/m² -
1788074508 15° C 98% 1007.5 hPa 0 mm - 146 W/m² -
1788073903 15° C 98% 1007.5 hPa 0 mm - 142 W/m² -
1788073302 14.44° C 98% 1007.6 hPa 0 mm - 144 W/m² -
1788072701 14.44° C 98% 1007.7 hPa 0.25 mm - 176 W/m² -
1788072099 13.89° C 98% 1007.7 hPa 0.25 mm - 47 W/m² -
1788071497 13.89° C 98% 1007.7 hPa 0.25 mm - 49 W/m² -
1788070898 13.89° C 98% 1007.8 hPa 0.25 mm - 39 W/m² -
1788070297 13.89° C 98% 1007.8 hPa 0.25 mm - 26 W/m² -
1788069691 13.89° C 98% 1007.8 hPa 0.51 mm - 23 W/m² -
1788069091 13.89° C 98% 1007.9 hPa 0.25 mm - 46 W/m² -
1788068491 13.89° C 98% 1007.8 hPa 0.25 mm - 30 W/m² -
1788067897 13.89° C 98% 1008 hPa 0.25 mm - 33 W/m² -
1788067290 13.89° C 98% 1008 hPa 0.25 mm - 19 W/m² -
1788066691 13.89° C 98% 1008 hPa 0.25 mm - 18 W/m² -
1788066089 13.89° C 98% 1008.1 hPa 0 mm - 16 W/m² -

* Rain latest hour (hover to see other rain measurements)
** Current wind speed in m/s (hover to see current wind gust speed)